Time,TemperatureF,DewpointF,PressureIn,WindDirection,WindDirectionDegrees,WindSpeedMPH,WindSpeedGustMPH,Humidity,HourlyPrecipIn,Conditions,Clouds,dailyrainin,SoftwareType,DateUTC
2013-03-27 00:00:00,26.1,19.6,30.03,NE,43,12.0,13.0,76,0.00,CLR,,0.00,WeatherDisplay:10.37,2013-03-27 00:00:00,
2013-03-27 00:10:00,26.8,20.5,30.03,NE,42,12.0,13.0,77,0.00,CLR,,0.00,WeatherDisplay:10.37,2013-03-27 00:10:00,
2013-03-27 00:20:00,27.1,20.9,30.03,NE,41,10.0,15.0,77,0.00,CLR,,0.00,WeatherDisplay:10.37,2013-03-27 00:20:00,
2013-03-27 00:30:00,27.3,21.1,30.03,NE,39,10.0,13.0,77,0.00,CLR,,0.00,WeatherDisplay:10.37,2013-03-27 00:30:00,
2013-03-27 00:40:00,27.3,21.1,30.02,NE,43,9.0,12.0,77,0.00,CLR,,0.00,WeatherDisplay:10.37,2013-03-27 00:40:00,
2013-03-27 00:50:00,27.3,21.1,30.02,NE,44,9.0,12.0,77,0.00,CLR,,0.00,WeatherDisplay:10.37,2013-03-27 00:50:00,
2013-03-27 01:00:00,27.3,21.1,30.02,NE,44,8.0,13.0,77,0.00,CLR,,0.00,WeatherDisplay:10.37,2013-03-27 01:00:00,
2013-03-27 01:10:00,27.5,21.2,30.02,NE,44,8.0,13.0,77,0.00,CLR,,0.00,WeatherDisplay:10.37,2013-03-27 01:10:00,
2013-03-27 01:20:00,27.6,21.1,30.02,NE,43,7.0,10.0,76,0.00,CLR,,0.00,WeatherDisplay:10.37,2013-03-27 01:20:00,
2013-03-27 01:30:00,27.5,20.9,30.02,NE,45,8.0,10.0,76,0.00,CLR,,0.00,WeatherDisplay:10.37,2013-03-27 01:30:00,
2013-03-27 01:40:00,27.3,20.4,30.02,NE,48,6.0,10.0,75,0.00,CLR,,0.00,WeatherDisplay:10.37,2013-03-27 01:40:00,
2013-03-27 01:50:00,27.0,20.1,30.02,NE,46,5.0,11.0,75,0.00,CLR,,0.00,WeatherDisplay:10.37,2013-03-27 01:50:00,
2013-03-27 02:00:00,26.4,19.6,30.01,NE,46,7.0,9.0,75,0.00,CLR,,0.00,WeatherDisplay:10.37,2013-03-27 02:00:00,
2013-03-27 02:10:00,26.2,19.4,30.01,NE,53,7.0,12.0,75,0.00,CLR,,0.00,WeatherDisplay:10.37,2013-03-27 02:10:00,
2013-03-27 02:20:00,26.6,19.7,30.00,NE,46,9.0,12.0,75,0.00,CLR,,0.00,WeatherDisplay:10.37,2013-03-27 02:20:00,
2013-03-27 02:30:00,26.8,20.2,30.00,NE,46,7.0,12.0,76,0.00,CLR,,0.00,WeatherDisplay:10.37,2013-03-27 02:30:00,
2013-03-27 02:40:00,27.0,20.4,30.00,NE,53,6.0,12.0,76,0.00,CLR,,0.00,WeatherDisplay:10.37,2013-03-27 02:40:00,
2013-03-27 02:50:00,27.3,21.0,30.00,NE,45,6.0,10.0,77,0.00,CLR,,0.00,WeatherDisplay:10.37,2013-03-27 02:50:00,
2013-03-27 03:00:00,27.5,21.2,30.00,NE,46,6.0,13.0,77,0.00,CLR,,0.00,WeatherDisplay:10.37,2013-03-27 03:00:00,
2013-03-27 03:10:00,27.5,21.2,30.00,NE,50,9.0,12.0,77,0.00,CLR,,0.00,WeatherDisplay:10.37,2013-03-27 03:10:00,
2013-03-27 03:20:00,27.5,21.2,30.00,ENE,60,6.0,11.0,77,0.00,CLR,,0.00,WeatherDisplay:10.37,2013-03-27 03:20:00,
2013-03-27 03:30:00,27.1,20.9,29.99,NE,35,8.0,10.0,77,0.00,CLR,,0.00,WeatherDisplay:10.37,2013-03-27 03:30:00,
2013-03-27 03:40:00,26.9,20.6,29.99,NE,50,6.0,10.0,77,0.00,CLR,,0.00,WeatherDisplay:10.37,2013-03-27 03:40:00,
2013-03-27 03:50:00,26.2,19.7,29.99,NE,45,9.0,12.0,76,0.00,CLR,,0.00,WeatherDisplay:10.37,2013-03-27 03:50:00,
2013-03-27 04:00:00,26.8,20.5,29.99,ENE,62,8.0,11.0,77,0.00,CLR,,0.00,WeatherDisplay:10.37,2013-03-27 04:00:00,
2013-03-27 04:10:00,26.5,20.3,29.99,NE,53,7.0,10.0,77,0.00,CLR,,0.00,WeatherDisplay:10.37,2013-03-27 04:10:00,
2013-03-27 04:20:00,25.7,19.2,29.99,NE,41,8.0,11.0,76,0.00,CLR,,0.00,WeatherDisplay:10.37,2013-03-27 04:20:00,
2013-03-27 04:30:00,26.0,19.4,30.00,NE,44,6.0,8.0,76,0.00,CLR,,0.00,WeatherDisplay:10.37,2013-03-27 04:30:00,
2013-03-27 04:40:00,26.8,20.5,29.99,ENE,59,8.0,13.0,77,0.00,CLR,,0.00,WeatherDisplay:10.37,2013-03-27 04:40:00,
2013-03-27 04:50:00,27.0,21.0,29.99,ENE,66,12.0,17.0,78,0.00,CLR,,0.00,WeatherDisplay:10.37,2013-03-27 04:50:00,
2013-03-27 05:00:00,27.1,21.2,29.99,ENE,61,14.0,18.0,78,0.00,CLR,,0.00,WeatherDisplay:10.37,2013-03-27 05:00:00,
2013-03-27 05:10:00,26.7,20.5,29.99,ENE,64,9.0,15.0,77,0.00,CLR,,0.00,WeatherDisplay:10.37,2013-03-27 05:10:00,
2013-03-27 05:20:00,26.1,19.8,29.99,ENE,62,9.0,15.0,77,0.00,CLR,,0.00,WeatherDisplay:10.37,2013-03-27 05:20:00,
2013-03-27 05:30:00,25.9,19.7,29.99,NE,51,8.0,17.0,77,0.00,CLR,,0.00,WeatherDisplay:10.37,2013-03-27 05:30:00,
2013-03-27 05:40:00,25.9,19.7,29.99,NE,48,9.0,12.0,77,0.00,CLR,,0.00,WeatherDisplay:10.37,2013-03-27 05:40:00,
2013-03-27 05:50:00,26.1,19.8,29.99,NE,45,8.0,14.0,77,0.00,CLR,,0.00,WeatherDisplay:10.37,2013-03-27 05:50:00,
2013-03-27 06:00:00,26.2,20.0,29.99,NE,42,7.0,9.0,77,0.00,CLR,,0.00,WeatherDisplay:10.37,2013-03-27 06:00:00,
2013-03-27 06:10:00,26.6,20.7,29.99,NE,45,13.0,14.0,78,0.00,CLR,,0.00,WeatherDisplay:10.37,2013-03-27 06:10:00,
2013-03-27 06:20:00,26.8,20.8,29.99,NE,45,9.0,13.0,78,0.00,CLR,,0.00,WeatherDisplay:10.37,2013-03-27 06:20:00,
2013-03-27 06:30:00,26.8,20.9,29.99,NE,56,7.0,11.0,78,0.00,CLR,,0.00,WeatherDisplay:10.37,2013-03-27 06:30:00,
2013-03-27 06:40:00,27.1,21.1,29.99,NE,54,10.0,13.0,78,0.00,CLR,,0.00,WeatherDisplay:10.37,2013-03-27 06:40:00,
2013-03-27 06:50:00,27.1,21.2,29.99,NE,56,9.0,15.0,78,0.00,CLR,,0.00,WeatherDisplay:10.37,2013-03-27 06:50:00,
2013-03-27 07:00:00,27.5,21.5,29.99,ENE,62,10.0,13.0,78,0.00,CLR,,0.00,WeatherDisplay:10.37,2013-03-27 07:00:00,
2013-03-27 07:10:00,28.0,22.1,29.99,ENE,65,9.0,13.0,78,0.00,CLR,,0.00,WeatherDisplay:10.37,2013-03-27 07:10:00,
2013-03-27 07:20:00,28.6,22.3,29.99,ENE,71,6.0,10.0,77,0.00,CLR,,0.00,WeatherDisplay:10.37,2013-03-27 07:20:00,
2013-03-27 07:30:00,28.7,22.1,29.99,ENE,69,12.0,15.0,76,0.00,CLR,,0.00,WeatherDisplay:10.37,2013-03-27 07:30:00,
2013-03-27 07:40:00,28.2,21.3,29.99,ENE,67,7.0,14.0,75,0.00,CLR,,0.00,WeatherDisplay:10.37,2013-03-27 07:40:00,
2013-03-27 07:50:00,28.6,21.7,29.99,ENE,60,7.0,10.0,75,0.00,CLR,,0.00,WeatherDisplay:10.37,2013-03-27 07:50:00,
2013-03-27 08:00:00,27.5,19.9,29.99,NE,44,10.0,12.0,73,0.00,CLR,,0.00,WeatherDisplay:10.37,2013-03-27 08:00:00,
2013-03-27 08:10:00,27.7,19.8,29.99,NE,50,7.0,11.0,72,0.00,CLR,,0.00,WeatherDisplay:10.37,2013-03-27 08:10:00,
2013-03-27 08:20:00,28.8,21.3,29.99,ENE,60,5.0,6.0,73,0.00,CLR,,0.00,WeatherDisplay:10.37,2013-03-27 08:20:00,
2013-03-27 08:30:00,30.1,22.5,29.99,NE,46,7.0,10.0,73,0.00,CLR,,0.00,WeatherDisplay:10.37,2013-03-27 08:30:00,
2013-03-27 08:40:00,30.5,21.9,29.99,NE,47,9.0,12.0,70,0.00,CLR,,0.00,WeatherDisplay:10.37,2013-03-27 08:40:00,
2013-03-27 08:50:00,33.5,24.4,29.99,NE,46,12.0,13.0,69,0.00,CLR,,0.00,WeatherDisplay:10.37,2013-03-27 08:50:00,
2013-03-27 09:00:00,34.2,23.7,29.99,NE,55,6.0,13.0,65,0.00,CLR,,0.00,WeatherDisplay:10.37,2013-03-27 09:00:00,
2013-03-27 09:10:00,37.0,26.4,29.99,ENE,65,8.0,10.0,65,0.00,CLR,,0.00,WeatherDisplay:10.37,2013-03-27 09:10:00,
2013-03-27 09:20:00,34.8,21.1,29.99,ENE,57,3.0,9.0,57,0.00,CLR,,0.00,WeatherDisplay:10.37,2013-03-27 09:20:00,
2013-03-27 09:30:00,34.2,20.9,29.99,NE,43,6.0,9.0,58,0.00,CLR,,0.00,WeatherDisplay:10.37,2013-03-27 09:30:00,
2013-03-27 09:40:00,34.0,21.1,29.99,NE,38,8.0,11.0,59,0.00,CLR,,0.00,WeatherDisplay:10.37,2013-03-27 09:40:00,
2013-03-27 09:50:00,34.9,22.4,29.99,ENE,63,8.0,12.0,60,0.00,CLR,,0.00,WeatherDisplay:10.37,2013-03-27 09:50:00,
2013-03-27 10:00:00,34.0,20.7,30.00,NE,52,5.0,9.0,58,0.00,CLR,,0.00,WeatherDisplay:10.37,2013-03-27 10:00:00,
2013-03-27 10:10:00,34.2,21.3,29.99,NE,48,9.0,11.0,59,0.00,CLR,,0.00,WeatherDisplay:10.37,2013-03-27 10:10:00,
2013-03-27 10:20:00,35.1,22.6,29.99,NE,48,9.0,13.0,60,0.00,CLR,,0.00,WeatherDisplay:10.37,2013-03-27 10:20:00,
2013-03-27 10:30:00,36.1,23.2,29.99,NE,47,10.0,13.0,59,0.00,CLR,,0.00,WeatherDisplay:10.37,2013-03-27 10:30:00,
2013-03-27 10:40:00,38.7,24.8,29.99,NE,53,9.0,13.0,57,0.00,CLR,,0.00,WeatherDisplay:10.37,2013-03-27 10:40:00,
2013-03-27 10:50:00,37.5,21.4,29.98,NE,46,9.0,11.0,52,0.00,CLR,,0.00,WeatherDisplay:10.37,2013-03-27 10:50:00,
2013-03-27 11:00:00,36.1,21.1,29.99,NE,54,8.0,13.0,54,0.00,CLR,,0.00,WeatherDisplay:10.37,2013-03-27 11:00:00,
2013-03-27 11:10:00,37.2,22.9,29.99,NE,43,8.0,12.0,56,0.00,CLR,,0.00,WeatherDisplay:10.37,2013-03-27 11:10:00,
2013-03-27 11:20:00,36.7,21.6,29.98,ENE,62,12.0,13.0,54,0.00,CLR,,0.00,WeatherDisplay:10.37,2013-03-27 11:20:00,
2013-03-27 11:30:00,38.3,24.0,29.98,ENE,60,8.0,12.0,56,0.00,CLR,,0.00,WeatherDisplay:10.37,2013-03-27 11:30:00,
2013-03-27 11:40:00,39.1,24.3,29.98,ENE,65,8.0,12.0,55,0.00,CLR,,0.00,WeatherDisplay:10.37,2013-03-27 11:40:00,
2013-03-27 11:50:00,37.5,21.4,29.98,ENE,66,20.0,21.0,52,0.00,CLR,,0.00,WeatherDisplay:10.37,2013-03-27 11:50:00,
2013-03-27 12:00:00,34.7,20.6,29.98,ENE,69,13.0,20.0,56,0.00,CLR,,0.00,WeatherDisplay:10.37,2013-03-27 12:00:00,
2013-03-27 12:10:00,35.3,22.4,29.98,ENE,63,15.0,17.0,59,0.00,CLR,,0.00,WeatherDisplay:10.37,2013-03-27 12:10:00,
2013-03-27 12:20:00,36.5,22.7,29.98,ENE,66,15.0,16.0,57,0.00,CLR,,0.00,WeatherDisplay:10.37,2013-03-27 12:20:00,
2013-03-27 12:30:00,34.5,21.2,29.98,ENE,67,14.0,15.0,58,0.00,CLR,,0.00,WeatherDisplay:10.37,2013-03-27 12:30:00,
2013-03-27 12:40:00,37.9,25.2,29.97,ENE,68,12.0,15.0,60,0.00,CLR,,0.00,WeatherDisplay:10.37,2013-03-27 12:40:00,
2013-03-27 12:50:00,39.2,24.8,29.97,ENE,64,9.0,16.0,56,0.00,CLR,,0.00,WeatherDisplay:10.37,2013-03-27 12:50:00,
2013-03-27 13:00:00,37.8,23.0,29.97,ENE,58,10.0,14.0,55,0.00,CLR,,0.00,WeatherDisplay:10.37,2013-03-27 13:00:00,
2013-03-27 13:10:00,43.2,27.7,29.98,ENE,65,8.0,13.0,54,0.00,CLR,,0.00,WeatherDisplay:10.37,2013-03-27 13:10:00,
2013-03-27 13:20:00,42.4,24.5,29.97,NE,54,12.0,15.0,49,0.00,CLR,,0.00,WeatherDisplay:10.37,2013-03-27 13:20:00,
2013-03-27 13:30:00,42.1,22.2,29.97,ENE,62,14.0,17.0,45,0.00,CLR,,0.00,WeatherDisplay:10.37,2013-03-27 13:30:00,
2013-03-27 13:40:00,40.5,21.9,29.96,ENE,63,12.0,17.0,47,0.00,CLR,,0.00,WeatherDisplay:10.37,2013-03-27 13:40:00,
2013-03-27 13:50:00,40.1,22.5,29.96,ENE,63,10.0,13.0,49,0.00,CLR,,0.00,WeatherDisplay:10.37,2013-03-27 13:50:00,
2013-03-27 14:00:00,38.7,21.6,29.96,ENE,68,9.0,16.0,50,0.00,CLR,,0.00,WeatherDisplay:10.37,2013-03-27 14:00:00,
2013-03-27 14:10:00,37.5,21.0,29.97,ENE,60,15.0,17.0,51,0.00,CLR,,0.00,WeatherDisplay:10.37,2013-03-27 14:10:00,
2013-03-27 14:20:00,36.4,20.9,29.97,ENE,67,15.0,18.0,53,0.00,CLR,,0.00,WeatherDisplay:10.37,2013-03-27 14:20:00,
2013-03-27 14:30:00,36.3,21.2,29.96,ENE,67,14.0,18.0,54,0.00,CLR,,0.00,WeatherDisplay:10.37,2013-03-27 14:30:00,
2013-03-27 14:40:00,35.4,20.4,29.96,ENE,72,15.0,18.0,54,0.00,CLR,,0.00,WeatherDisplay:10.37,2013-03-27 14:40:00,
2013-03-27 14:50:00,34.2,19.7,29.96,ENE,67,14.0,17.0,55,0.00,CLR,,0.00,WeatherDisplay:10.37,2013-03-27 14:50:00,
2013-03-27 15:00:00,34.5,20.0,29.95,ENE,68,14.0,16.0,55,0.00,CLR,,0.00,WeatherDisplay:10.37,2013-03-27 15:00:00,
2013-03-27 15:10:00,35.8,20.7,29.96,East,80,13.0,16.0,54,0.00,CLR,,0.00,WeatherDisplay:10.37,2013-03-27 15:10:00,
2013-03-27 15:20:00,36.0,21.8,29.96,East,97,6.0,13.0,56,0.00,CLR,,0.00,WeatherDisplay:10.37,2013-03-27 15:20:00,
2013-03-27 15:30:00,36.5,21.8,29.96,ENE,72,6.0,9.0,55,0.00,CLR,,0.00,WeatherDisplay:10.37,2013-03-27 15:30:00,
2013-03-27 15:40:00,38.0,21.9,29.95,ENE,66,15.0,16.0,52,0.00,CLR,,0.00,WeatherDisplay:10.37,2013-03-27 15:40:00,
2013-03-27 15:50:00,37.3,20.8,29.95,ENE,66,14.0,16.0,51,0.00,CLR,,0.00,WeatherDisplay:10.37,2013-03-27 15:50:00,
2013-03-27 16:00:00,34.8,18.5,29.95,ENE,67,16.0,20.0,51,0.00,CLR,,0.00,WeatherDisplay:10.37,2013-03-27 16:00:00,
2013-03-27 16:10:00,34.2,20.1,29.96,ENE,71,9.0,16.0,56,0.00,CLR,,0.00,WeatherDisplay:10.37,2013-03-27 16:10:00,
2013-03-27 16:20:00,34.2,20.5,29.96,ENE,61,9.0,15.0,57,0.00,CLR,,0.00,WeatherDisplay:10.37,2013-03-27 16:20:00,
2013-03-27 16:30:00,33.8,20.2,29.96,ENE,72,7.0,15.0,57,0.00,CLR,,0.00,WeatherDisplay:10.37,2013-03-27 16:30:00,
2013-03-27 16:40:00,33.8,20.2,29.96,ENE,74,5.0,14.0,57,0.00,CLR,,0.00,WeatherDisplay:10.37,2013-03-27 16:40:00,
2013-03-27 16:50:00,33.4,19.0,29.96,East,85,8.0,16.0,55,0.00,CLR,,0.00,WeatherDisplay:10.37,2013-03-27 16:50:00,
2013-03-27 17:00:00,33.8,19.3,29.96,East,83,8.0,15.0,55,0.00,CLR,,0.00,WeatherDisplay:10.37,2013-03-27 17:00:00,
2013-03-27 17:10:00,33.6,18.7,29.96,ENE,68,9.0,15.0,54,0.00,CLR,,0.00,WeatherDisplay:10.37,2013-03-27 17:10:00,
2013-03-27 17:20:00,33.4,18.9,29.96,ENE,61,8.0,14.0,55,0.00,CLR,,0.00,WeatherDisplay:10.37,2013-03-27 17:20:00,
2013-03-27 17:30:00,32.8,18.8,29.96,ENE,66,14.0,14.0,56,0.00,CLR,,0.00,WeatherDisplay:10.37,2013-03-27 17:30:00,
2013-03-27 17:40:00,31.6,19.3,29.96,ENE,62,12.0,17.0,60,0.00,CLR,,0.00,WeatherDisplay:10.37,2013-03-27 17:40:00,
2013-03-27 17:50:00,30.6,18.7,29.97,ENE,63,12.0,16.0,61,0.00,CLR,,0.00,WeatherDisplay:10.37,2013-03-27 17:50:00,
2013-03-27 18:00:00,29.8,18.3,29.97,ENE,59,10.0,13.0,62,0.00,CLR,,0.00,WeatherDisplay:10.37,2013-03-27 18:00:00,
2013-03-27 18:10:00,29.2,18.2,29.97,ENE,59,9.0,12.0,63,0.00,CLR,,0.00,WeatherDisplay:10.37,2013-03-27 18:10:00,
2013-03-27 18:20:00,28.8,18.1,29.96,NE,52,8.0,13.0,64,0.00,CLR,,0.00,WeatherDisplay:10.37,2013-03-27 18:20:00,
2013-03-27 18:30:00,28.6,17.9,29.96,NE,56,14.0,15.0,64,0.00,CLR,,0.00,WeatherDisplay:10.37,2013-03-27 18:30:00,
2013-03-27 18:40:00,28.8,18.5,29.97,ENE,61,12.0,16.0,65,0.00,CLR,,0.00,WeatherDisplay:10.37,2013-03-27 18:40:00,
2013-03-27 18:50:00,29.7,19.7,29.97,ENE,60,13.0,16.0,66,0.00,CLR,,0.00,WeatherDisplay:10.37,2013-03-27 18:50:00,
2013-03-27 19:00:00,30.2,20.6,29.97,ENE,62,10.0,16.0,67,0.00,CLR,,0.00,WeatherDisplay:10.37,2013-03-27 19:00:00,
2013-03-27 19:10:00,30.4,20.7,29.98,ENE,67,9.0,13.0,67,0.00,CLR,,0.00,WeatherDisplay:10.37,2013-03-27 19:10:00,
2013-03-27 19:20:00,29.8,20.6,29.97,ENE,61,8.0,11.0,68,0.00,CLR,,0.00,WeatherDisplay:10.37,2013-03-27 19:20:00,
2013-03-27 19:30:00,29.8,20.6,29.97,ENE,69,13.0,16.0,68,0.00,CLR,,0.00,WeatherDisplay:10.37,2013-03-27 19:30:00,
2013-03-27 19:40:00,29.5,20.2,29.98,NE,49,14.0,20.0,68,0.00,CLR,,0.00,WeatherDisplay:10.37,2013-03-27 19:40:00,
2013-03-27 19:50:00,29.3,20.0,29.98,ENE,61,15.0,16.0,68,0.00,CLR,,0.00,WeatherDisplay:10.37,2013-03-27 19:50:00,
2013-03-27 20:00:00,29.7,20.4,29.97,NNE,16,16.0,18.0,68,0.00,CLR,,0.00,WeatherDisplay:10.37,2013-03-27 20:00:00,
2013-03-27 20:10:00,29.7,19.0,29.97,ENE,62,12.0,17.0,64,0.00,CLR,,0.00,WeatherDisplay:10.37,2013-03-27 20:10:00,
2013-03-27 20:20:00,29.1,17.3,29.97,ENE,59,14.0,17.0,61,0.00,CLR,,0.00,WeatherDisplay:10.37,2013-03-27 20:20:00,
2013-03-27 20:30:00,28.8,17.0,29.98,NE,56,14.0,17.0,61,0.00,CLR,,0.00,WeatherDisplay:10.37,2013-03-27 20:30:00,
2013-03-27 20:40:00,28.6,17.2,29.98,ENE,58,13.0,17.0,62,0.00,CLR,,0.00,WeatherDisplay:10.37,2013-03-27 20:40:00,
2013-03-27 20:50:00,28.1,17.1,29.97,NE,34,10.0,14.0,63,0.00,CLR,,0.00,WeatherDisplay:10.37,2013-03-27 20:50:00,
2013-03-27 21:00:00,27.9,17.6,29.97,NE,41,9.0,13.0,65,0.00,CLR,,0.00,WeatherDisplay:10.37,2013-03-27 21:00:00,
2013-03-27 21:10:00,28.3,18.7,29.98,NE,44,10.0,13.0,67,0.00,CLR,,0.00,WeatherDisplay:10.37,2013-03-27 21:10:00,
2013-03-27 21:20:00,28.8,19.9,29.98,NE,56,13.0,16.0,69,0.00,CLR,,0.00,WeatherDisplay:10.37,2013-03-27 21:20:00,
2013-03-27 21:30:00,28.8,20.2,29.98,NE,48,13.0,16.0,70,0.00,CLR,,0.00,WeatherDisplay:10.37,2013-03-27 21:30:00,
2013-03-27 21:40:00,28.7,20.1,29.98,NE,39,12.0,16.0,70,0.00,CLR,,0.00,WeatherDisplay:10.37,2013-03-27 21:40:00,
2013-03-27 21:50:00,28.3,19.8,29.98,NE,41,9.0,13.0,70,0.00,CLR,,0.00,WeatherDisplay:10.37,2013-03-27 21:50:00,
2013-03-27 22:00:00,27.8,19.6,29.97,NE,49,13.0,15.0,71,0.00,CLR,,0.00,WeatherDisplay:10.37,2013-03-27 22:00:00,
2013-03-27 22:10:00,27.4,19.2,29.98,NE,51,9.0,15.0,71,0.00,CLR,,0.00,WeatherDisplay:10.37,2013-03-27 22:10:00,
2013-03-27 22:20:00,27.1,19.3,29.98,NE,44,12.0,16.0,72,0.00,CLR,,0.00,WeatherDisplay:10.37,2013-03-27 22:20:00,
2013-03-27 22:30:00,26.8,19.3,29.98,NE,45,7.0,14.0,73,0.00,CLR,,0.00,WeatherDisplay:10.37,2013-03-27 22:30:00,
2013-03-27 22:40:00,26.2,18.8,29.98,NE,41,7.0,12.0,73,0.00,CLR,,0.00,WeatherDisplay:10.37,2013-03-27 22:40:00,
2013-03-27 22:50:00,26.1,18.9,29.97,NNE,31,6.0,10.0,74,0.00,CLR,,0.00,WeatherDisplay:10.37,2013-03-27 22:50:00,
2013-03-27 23:00:00,25.5,18.4,29.97,NNE,33,6.0,7.0,74,0.00,CLR,,0.00,WeatherDisplay:10.37,2013-03-27 23:00:00,
2013-03-27 23:10:00,25.2,18.0,29.97,NE,34,6.0,9.0,74,0.00,CLR,,0.00,WeatherDisplay:10.37,2013-03-27 23:10:00,
2013-03-27 23:20:00,25.0,18.2,29.97,NNE,33,6.0,11.0,75,0.00,CLR,,0.00,WeatherDisplay:10.37,2013-03-27 23:20:00,
2013-03-27 23:30:00,25.0,18.2,29.97,NE,42,2.0,11.0,75,0.00,CLR,,0.00,WeatherDisplay:10.37,2013-03-27 23:30:00,
2013-03-27 23:40:00,25.2,18.7,29.97,ENE,58,6.0,7.0,76,0.00,CLR,,0.00,WeatherDisplay:10.37,2013-03-27 23:40:00,
2013-03-27 23:50:00,25.8,19.6,29.97,ENE,72,6.0,8.0,77,0.00,CLR,,0.00,WeatherDisplay:10.37,2013-03-27 23:50:00,